[[{"header":{"parameterUnit":"m.s-1","parameterCategory":1,"la1":30.2991,"la2":30.254,"lo1":-89.0895,"lo2":-89.0444,"dy":0.0017,"dx":0.0017,"nx":28,"ny":28,"refTime":"2023-08-16T03:00:00:Z","depth":0,"parameterNumber":2,"parameterNumberName":"U-component_of_WINDS"},"data":[0,0,0,0,0,0,0,0,0,0,0,0,0,0,0,0,0,0,0,0,0,0,0,0,0,0,0,0,0,0,0,0,0,0,0,0,0,0,0,0,0,0,0,0,0,0,0,0,0,0,0,0,0,0,0,0,0,0,-0.0845,-0.0843,0,-0.0654,-0.0652,-0.065,-0.0557,-0.0557,-0.0557,-0.0557,-0.0359,-0.0353,-0.0348,0,0,0,0,0,0,0,0,0,0,0,0,0,-0.1128,-0.1123,-0.0845,-0.0843,-0.0841,-0.0655,-0.0652,-0.0649,-0.0557,-0.0557,-0.0557,-0.0557,-0.036,-0.0354,-0.0348,0,0,0,0,0,0,0,0,0,0,0,0,0,-0.0978,-0.1122,-0.0846,-0.0772,-0.0763,-0.0655,-0.0652,-0.0649,-0.0557,-0.0557,-0.0557,-0.0557,-0.0362,-0.0355,-0.0347,-0.0297,0,0,-0.0323,-0.0319,0,0,0,0,0,0,0,0,-0.0987,-0.0968,-0.0785,-0.0777,-0.0767,-0.0629,-0.0679,-0.0531,-0.0557,-0.0635,-0.0557,-0.0557,-0.0448,-0.0433,-0.0397,-0.0288,-0.0279,-0.0322,-0.0317,-0.0314,-0.0311,0,0,0,0,0,0,0,-0.0997,-0.0975,-0.077,-0.0783,-0.0772,-0.0748,-0.0727,-0.065,-0.0544,-0.0628,-0.0621,-0.06,-0.0444,-0.0405,-0.0392,-0.0276,-0.0322,-0.0315,-0.031,-0.0307,-0.0116,-0.0116,0,0,0,0,0,0,-0.102,-0.0985,-0.0776,-0.0764,-0.0879,-0.0743,-0.0719,-0.0673,-0.0544,-0.0525,-0.06,-0.0596,-0.0419,-0.0402,-0.0385,-0.0318,-0.0314,-0.0306,-0.0302,-0.0116,-0.0116,-0.0115,0,0,0,0,0,0,-0.1026,-0.1002,-0.0783,-0.0872,-0.0843,-0.0738,-0.0688,-0.067,-0.0631,-0.0523,-0.0503,-0.0581,-0.0418,-0.0396,-0.032,-0.031,-0.0303,-0.0295,-0.0117,-0.0116,-0.0116,-0.0184,0,0,0,0,0,0,-0.1035,-0.1005,-0.0985,-0.0873,-0.0838,-0.0722,-0.0687,-0.0666,-0.0618,-0.0611,-0.05,-0.0481,-0.0417,-0.0332,-0.0312,-0.0299,-0.0289,-0.0117,-0.0116,-0.0116,-0.0182,-0.0186,-0.0189,0,0,0,0,0,-0.1045,-0.1011,-0.0985,-0.096,-0.0812,-0.0722,-0.0702,-0.0629,-0.0618,-0.0597,-0.0527,-0.0485,-0.0314,-0.0325,-0.0301,-0.0286,-0.0117,-0.0117,-0.0116,-0.018,-0.0185,-0.0189,0,0,0,0,0,0,-0.1125,-0.0995,-0.0964,-0.0893,-0.082,-0.0706,-0.0678,-0.0636,-0.0564,-0.056,-0.0472,-0.0448,-0.0379,-0.0325,-0.0339,-0.0231,-0.0212,-0.0206,-0.0269,-0.0272,-0.0276,-0.029,-0.0283,0,0,0,0,0,-0.1134,-0.1073,-0.0963,-0.0911,-0.0875,-0.0783,-0.0741,-0.0692,-0.0611,-0.058,-0.0504,-0.0427,-0.0356,-0.0311,-0.024,-0.0174,-0.0148,-0.0151,-0.0155,-0.0158,-0.0155,-0.0116,-0.0116,-0.0113,-0.0113,-0.0113,0,0,-0.1153,-0.1074,-0.1041,-0.0925,-0.0862,-0.08,-0.0758,-0.0693,-0.0646,-0.0569,-0.0493,-0.0435,-0.0344,-0.0273,-0.0237,-0.0225,-0.015,-0.0158,-0.0161,-0.0155,-0.0115,-0.0115,-0.0116,-0.0113,-0.0113,-0.0113,0,0,-0.1155,-0.109,-0.1039,-0.0977,-0.0883,-0.0822,-0.081,-0.0703,-0.0662,-0.0584,-0.0525,-0.0468,-0.0347,-0.0284,-0.0237,-0.0216,-0.0174,-0.0196,-0.0214,-0.0177,-0.0177,-0.0177,-0.0169,-0.0168,-0.0192,-0.0192,-0.0192,0,-0.1189,-0.1094,-0.1018,-0.0958,-0.0908,-0.0837,-0.0785,-0.0728,-0.0615,-0.0583,-0.057,-0.0418,-0.0351,-0.0265,-0.026,-0.0224,-0.0207,-0.0208,-0.0183,-0.0182,-0.0181,-0.0173,-0.017,-0.0196,-0.0195,-0.0195,-0.0195,0,-0.1141,-0.1076,-0.1047,-0.0941,-0.0888,-0.0832,-0.0747,-0.0703,-0.0658,-0.0599,-0.052,-0.0438,-0.0349,-0.0325,-0.028,-0.0232,-0.0227,-0.02,-0.0179,-0.0186,-0.0176,-0.0173,-0.02,-0.0199,-0.0198,-0.0197,0,0,-0.1187,-0.1041,-0.1031,-0.0982,-0.0873,-0.0821,-0.0762,-0.0676,-0.0639,-0.0564,-0.0512,-0.0412,-0.0387,-0.0333,-0.0281,-0.0249,-0.0238,-0.0226,-0.0222,-0.0231,-0.0179,-0.02,-0.0198,-0.021,-0.0209,-0.0208,-0.0187,0,-0.1174,-0.1065,-0.0996,-0.0915,-0.0854,-0.0786,-0.0734,-0.0661,-0.0604,-0.0544,-0.048,-0.0411,-0.0383,-0.035,-0.0316,-0.0247,-0.0226,-0.0247,-0.016,-0.0158,-0.0185,-0.0193,-0.0214,-0.0198,-0.0183,-0.0182,-0.0182,0,-0.1144,-0.1071,-0.0985,-0.0883,-0.0854,-0.0809,-0.0725,-0.0668,-0.0584,-0.0545,-0.0486,-0.0433,-0.0367,-0.0353,-0.0261,-0.0277,-0.0237,-0.0198,-0.0196,-0.0184,-0.017,-0.0181,-0.0191,-0.0189,-0.0176,-0.0176,-0.0177,0,-0.1186,-0.1067,-0.0999,-0.0959,-0.0839,-0.0809,-0.0757,-0.0674,-0.0627,-0.0553,-0.0521,-0.0441,-0.0396,-0.0335,-0.0262,-0.0258,-0.0177,-0.0157,-0.0142,-0.0144,-0.0128,-0.013,-0.0131,-0.0103,-0.0103,-0.0103,-0.0104,0,-0.1178,-0.1128,-0.1017,-0.0975,-0.0917,-0.0837,-0.0781,-0.0724,-0.065,-0.0596,-0.0532,-0.0483,-0.0389,-0.0328,-0.027,-0.0203,-0.0184,-0.015,-0.0135,-0.0155,-0.016,-0.0127,-0.0127,-0.0103,-0.0103,-0.0103,-0.0103,0,-0.1215,-0.1139,-0.1061,-0.0954,-0.0925,-0.0887,-0.0795,-0.0752,-0.0692,-0.0625,-0.0604,-0.051,-0.0435,-0.0356,-0.0253,-0.0215,-0.015,-0.0129,-0.0178,-0.017,-0.016,-0.0162,-0.0141,-0.0134,-0.0112,-0.0112,-0.0112,0,-0.1215,-0.1175,-0.1063,-0.1023,-0.0973,-0.0909,-0.0861,-0.0781,-0.0733,-0.0635,-0.0604,-0.0525,-0.0457,-0.034,-0.0262,-0.0183,-0.016,-0.0158,-0.0148,-0.017,-0.016,-0.0163,-0.0159,-0.0162,-0.0162,-0.0163,-0.0163,0,-0.1223,-0.1187,-0.112,-0.1041,-0.0985,-0.0919,-0.0849,-0.082,-0.0726,-0.0676,-0.0599,-0.0547,-0.0443,-0.0365,-0.0277,-0.0223,-0.0177,-0.0167,-0.016,-0.018,-0.021,-0.0193,-0.0188,-0.0168,-0.0167,-0.0167,-0.0167,-0.0167,-0.124,-0.1202,-0.1118,-0.1046,-0.0985,-0.0922,-0.0877,-0.0812,-0.0746,-0.0656,-0.0613,-0.0536,-0.0454,-0.0331,-0.0279,-0.0217,-0.0203,-0.0193,-0.019,-0.0188,-0.0194,-0.0221,-0.0201,-0.02,-0.02,-0.02,-0.02,0,-0.1245,-0.1188,-0.1122,-0.1028,-0.0972,-0.0935,-0.0856,-0.0811,-0.0745,-0.0672,-0.0607,-0.0518,-0.0442,-0.0359,-0.0278,-0.0244,-0.0221,-0.0226,-0.0227,-0.0215,-0.021,-0.0225,-0.0246,-0.0246,-0.0246,-0.0246,-0.0246,-0.0246,-0.1241,-0.1173,-0.1128,-0.103,-0.0972,-0.0897,-0.0856,-0.0797,-0.0739,-0.0643,-0.058,-0.0527,-0.0449,-0.0362,-0.0291,-0.0268,-0.0241,-0.0251,-0.0223,-0.0219,-0.0216,-0.0212,-0.0225,-0.0246,-0.0246,-0.0232,-0.0232,-0.0232]},{"header":{"parameterUnit":"m.s-1","parameterCategory":1,"la1":30.2991,"la2":30.254,"lo1":-89.0895,"lo2":-89.0444,"dy":0.0017,"dx":0.0017,"nx":28,"ny":28,"refTime":"2023-08-16T03:00:00:Z","depth":0,"parameterNumber":3,"parameterNumberName":"V-component_of_WINDS"},"data":[0,0,0,0,0,0,0,0,0,0,0,0,0,0,0,0,0,0,0,0,0,0,0,0,0,0,0,0,0,0,0,0,0,0,0,0,0,0,0,0,0,0,0,0,0,0,0,0,0,0,0,0,0,0,0,0,0,0,4.6913,4.6913,0,4.6906,4.6906,4.6905,4.686,4.6859,4.6858,4.6857,4.6849,4.685,4.685,0,0,0,0,0,0,0,0,0,0,0,0,0,4.6889,4.6889,4.6913,4.6913,4.6913,4.6906,4.6906,4.6905,4.686,4.6859,4.6857,4.6856,4.6849,4.685,4.6851,0,0,0,0,0,0,0,0,0,0,0,0,0,4.6892,4.6889,4.6913,4.689,4.6887,4.6906,4.6906,4.6905,4.686,4.6859,4.6857,4.6856,4.6848,4.6849,4.6851,4.6891,0,0,4.6854,4.6855,0,0,0,0,0,0,0,0,4.6892,4.6893,4.6893,4.6891,4.6889,4.6882,4.6894,4.6901,4.6861,4.6871,4.6857,4.6855,4.6861,4.6861,4.6863,4.6891,4.6891,4.6855,4.6855,4.6856,4.6856,0,0,0,0,0,0,0,4.6892,4.6893,4.691,4.6893,4.6891,4.6879,4.6878,4.6895,4.6875,4.687,4.6866,4.6866,4.686,4.6862,4.6863,4.689,4.6854,4.6856,4.6856,4.6857,4.695,4.6952,0,0,0,0,0,0,4.6895,4.6893,4.691,4.691,4.6886,4.6881,4.688,4.6886,4.6875,4.6872,4.6867,4.6864,4.6861,4.6862,4.6863,4.6909,4.6856,4.6857,4.6858,4.6949,4.6951,4.6953,0,0,0,0,0,0,4.6894,4.6897,4.6911,4.6901,4.6902,4.6883,4.6891,4.6887,4.6889,4.6873,4.687,4.6874,4.686,4.6861,4.6884,4.6908,4.6857,4.6859,4.6947,4.6949,4.6952,4.7002,0,0,0,0,0,0,4.6894,4.6897,4.6912,4.6901,4.6902,4.6933,4.6892,4.6888,4.6891,4.6887,4.6878,4.6875,4.6859,4.6883,4.6886,4.6909,4.686,4.6944,4.6948,4.6951,4.6998,4.7006,4.7013,0,0,0,0,0,4.6893,4.6926,4.6913,4.6915,4.6921,4.6934,4.6935,4.6915,4.6894,4.6908,4.6898,4.6876,4.6905,4.6886,4.6888,4.6912,4.6943,4.6947,4.6951,4.6995,4.7005,4.7013,0,0,0,0,0,0,4.694,4.6925,4.6909,4.694,4.6939,4.6927,4.6945,4.6926,4.693,4.6926,4.6901,4.69,4.6927,4.6922,4.69,4.6951,4.692,4.6925,4.6953,4.6962,4.6969,4.6969,4.6861,0,0,0,0,0,4.6954,4.6967,4.6952,4.6981,4.6981,4.6963,4.6968,4.6953,4.6951,4.695,4.6941,4.694,4.6949,4.6955,4.6963,4.6998,4.6995,4.7016,4.7023,4.7029,4.7033,4.7051,4.706,4.6966,4.6966,4.6966,0,0,4.6983,4.6976,4.6985,4.699,4.6987,4.7,4.6963,4.6978,4.6988,4.6952,4.6974,4.6968,4.6965,4.6994,4.7007,4.6991,4.7059,4.7034,4.7039,4.704,4.7056,4.7065,4.7073,4.6968,4.6968,4.6968,0,0,4.7042,4.7039,4.7062,4.706,4.7056,4.7044,4.705,4.7041,4.7035,4.7057,4.703,4.7041,4.7057,4.7056,4.7057,4.7117,4.7096,4.712,4.7158,4.7176,4.7183,4.7189,4.721,4.7218,4.7124,4.7124,4.7125,0,4.7079,4.7097,4.7076,4.7093,4.7096,4.7065,4.7088,4.7087,4.7086,4.7089,4.7072,4.7091,4.7087,4.7115,4.713,4.7132,4.7138,4.712,4.7184,4.719,4.7196,4.7215,4.7223,4.7127,4.7127,4.7127,4.7126,0,4.7142,4.7156,4.7175,4.7175,4.718,4.72,4.7182,4.719,4.7174,4.7165,4.7187,4.7181,4.7186,4.7192,4.7177,4.7219,4.7209,4.7188,4.7156,4.7208,4.7226,4.7233,4.7131,4.713,4.713,4.7129,0,0,4.723,4.7218,4.7225,4.7225,4.7219,4.7229,4.7248,4.7253,4.726,4.7261,4.7276,4.729,4.7271,4.7273,4.7258,4.7274,4.7321,4.7251,4.725,4.7263,4.7365,4.7381,4.739,4.7307,4.7309,4.731,4.7366,0,4.7286,4.7317,4.7299,4.7333,4.7345,4.7316,4.7333,4.7331,4.7322,4.7331,4.7322,4.7332,4.7306,4.7307,4.7322,4.7312,4.7341,4.7308,4.7321,4.7321,4.7321,4.7399,4.7415,4.7468,4.7372,4.7374,4.7374,0,4.7355,4.7359,4.7394,4.7386,4.739,4.7405,4.7409,4.7418,4.7416,4.7408,4.7411,4.7392,4.741,4.738,4.7404,4.7382,4.7387,4.7383,4.7384,4.7384,4.735,4.74,4.7484,4.7492,4.7385,4.7385,4.7384,0,4.7415,4.7429,4.7451,4.7452,4.7443,4.7454,4.7451,4.7447,4.7452,4.7455,4.7458,4.7463,4.7466,4.7471,4.7454,4.7434,4.7481,4.7449,4.7475,4.7475,4.7485,4.7485,4.7571,4.749,4.749,4.7489,4.7489,0,4.7479,4.7501,4.7478,4.7492,4.7516,4.7496,4.7521,4.7514,4.7511,4.7523,4.7499,4.7511,4.7489,4.7499,4.7486,4.7508,4.7509,4.7504,4.75,4.7506,4.7506,4.7507,4.7503,4.7491,4.7491,4.7491,4.749,0,4.7549,4.7534,4.7557,4.7547,4.7545,4.7563,4.7555,4.7567,4.7557,4.7573,4.7576,4.756,4.7571,4.7555,4.7564,4.7555,4.7585,4.7576,4.7586,4.7583,4.761,4.7607,4.7699,4.7709,4.7622,4.7623,4.7624,0,4.759,4.7607,4.7599,4.7605,4.7603,4.7614,4.7619,4.7599,4.7605,4.7604,4.7616,4.7625,4.763,4.7649,4.7638,4.7645,4.7635,4.7667,4.7636,4.7641,4.7635,4.7634,4.7635,4.7673,4.7674,4.7675,4.7675,0,4.7665,4.7657,4.7664,4.7669,4.7676,4.7679,4.768,4.7687,4.7666,4.7674,4.7685,4.7689,4.7698,4.7707,4.7711,4.7707,4.7688,4.7685,4.7691,4.7697,4.7702,4.7699,4.7603,4.7683,4.7682,4.7682,4.7681,4.7681,4.7721,4.7734,4.7731,4.774,4.7739,4.7741,4.7753,4.7744,4.7753,4.7758,4.7747,4.776,4.7757,4.7761,4.776,4.777,4.7756,4.7765,4.7767,4.777,4.7773,4.7701,4.7771,4.777,4.777,4.777,4.777,0,4.7794,4.779,4.7799,4.7802,4.7809,4.7791,4.7792,4.7799,4.7811,4.781,4.7816,4.7829,4.7837,4.7828,4.7834,4.7844,4.7836,4.7847,4.7845,4.7845,4.7786,4.7779,4.7853,4.7853,4.7853,4.7853,4.7853,4.7853,4.7832,4.7854,4.7846,4.7867,4.7864,4.7876,4.7878,4.788,4.7879,4.7894,4.7901,4.7895,4.7891,4.7897,4.7904,4.7901,4.7904,4.7918,4.7912,4.7857,4.7849,4.7841,4.7835,4.7919,4.7919,4.797,4.7971,4.7971]}]]